Location: Chavonne
(49.4051°N, 3.5707°E)
Time: 16:31:01
(UTC+00:00)

Daily predictions for brighter satellites

Satellite Brightness Start Highest point End
(mag) Time Altitude Azimuth Time Altitude Azimuth Time Altitude Azimuth
Cosmos 332 Rocket 4.5 17:00:18 10° SW 17:05:09 60° WNW 17:10:03 10° NNE
Cosmos 1953 Rocket 4.3 17:02:05 10° N 17:06:04 32° ENE 17:10:03 10° SE
Cosmos 1340 4.2 17:03:45 10° NNE 17:06:20 17° ENE 17:08:55 10° ESE
Helios 1A Rocket 4.0 17:03:09 10° ESE 17:06:28 24° ENE 17:09:48 10° N
ERS-2 2.4 17:03:48 10° NNE 17:07:20 45° E 17:10:50 10° S
Cosmos 2058 Rocket 4.5 17:05:20 10° SE 17:08:25 19° E 17:11:33 10° NE
CORIOLIS 4.1 17:03:43 10° SSE 17:09:04 82° ENE 17:14:28 10° NNW
Cosmos 1939 Rocket 3.6 17:05:46 10° SE 17:09:19 32° ENE 17:12:49 10° N
CZ-4C R/B 4.2 17:09:14 10° N 17:12:18 42° WNW 17:15:27 10° SW
Cosmos 1328 3.7 17:10:16 10° N 17:14:14 81° E 17:18:11 10° SSE
SAR-Lupe-4 4.4 17:12:04 10° NNE 17:15:19 31° E 17:18:32 10° SSE
SMAP 3.5 17:14:32 10° S 17:19:10 70° WSW 17:23:51 10° NNW
Cosmos 2219 3.7 17:15:29 10° NNW 17:20:56 41° NE 17:26:21 10° ESE
Cosmos 1331 Rocket 4.3 17:17:02 10° S 17:21:54 44° ESE 17:26:47 10° NE
Cosmos 1818 4.1 17:17:11 10° SW 17:22:34 61° NW 17:28:00 10° NE
Timation 2 Rocket 4.1 17:19:05 10° NNW 17:25:36 65° NE 17:32:21 10° SE
CZ-4 R/B 2.1 17:25:44 10° SE 17:29:07 29° ENE 17:32:30 10° N
Cosmos 1356 Rocket 4.2 17:24:58 10° SSW 17:29:09 58° WNW 17:33:26 10° N
COSMO-SKYMED 1 3.0 17:27:25 10° NNE 17:31:32 39° E 17:35:36 10° SSE
SAR-Lupe-1 4.3 17:29:33 10° NNE 17:33:02 45° E 17:36:30 10° S
Aureole 3 3.9 17:31:14 10° SE 17:33:47 22° E 17:36:11 10° NE
Cosmos 1943 Rocket 4.2 17:31:10 10° W 17:35:30 23° NW 17:39:50 10° N
SeaSat 1 3.4 17:32:11 11° E 17:36:05 28° NE 17:40:13 10° NNW
Cosmos 1400 Rocket 3.7 17:33:14 10° SSE 17:36:49 29° E 17:40:24 10° NNE
H-2A R/B 3.4 17:33:10 10° N 17:37:06 39° WNW 17:40:56 10° SW
USA 215 3.7 17:33:06 12° E 17:38:53 48° N 17:45:07 10° WNW
ATLAS 2AS CENTAUR R/B 4.0 17:32:21 10° NW 17:39:03 30° NNE 17:44:29 13° ENE
Okean O Rocket 3.0 17:35:13 10° S 17:39:23 43° W 17:43:34 10° NNW
Cosmos 968 Rocket 4.0 17:38:06 10° N 17:42:58 37° ENE 17:47:45 10° SE
CZ-2C R/B 3.6 17:38:24 10° SE 17:43:52 44° ENE 17:49:12 10° N
Cosmos 1825 Rocket 3.8 17:39:48 10° NNW 17:44:16 76° W 17:48:41 10° S
ATLAS 5 CENTAUR R/B 3.4 17:42:01 10° W 17:45:41 25° NNW 17:49:47 10° NNE
USA 305 3.4 17:41:58 10° WNW 17:46:11 49° N 17:49:00 19° E
Cosmos 1689 Rocket 2.1 17:45:24 10° NNE 17:48:14 48° E 17:51:02 10° S
GENESIS II 4.4 17:44:17 10° SSW 17:48:15 57° SE 17:51:29 15° NE
Cosmos 1110 Rocket 3.9 17:43:14 10° SSW 17:48:29 80° ESE 17:53:43 10° NNE
YAOGAN 1 2.9 17:45:31 10° SE 17:49:36 43° ENE 17:53:43 10° N
Cosmos 1302 Rocket 4.4 17:46:19 10° S 17:51:14 42° ESE 17:56:12 10° NE
Meteor 2-10 Rocket 4.4 17:47:36 10° SE 17:51:59 26° E 17:56:14 10° NNE
USA 306 3.3 17:48:17 10° WNW 17:52:29 50° NNE 17:55:01 22° E
Cosmos 1486 Rocket 4.3 17:48:56 10° NNW 17:54:06 46° ENE 17:59:12 10° SE
ARGOS 3.9 17:50:29 11° ESE 17:55:00 31° ENE 17:59:44 10° N
Cosmos 1553 Rocket 4.3 17:49:20 10° SSE 17:55:20 46° E 18:01:17 10° NNE
SKYMED 3 4.5 17:51:17 10° NNE 17:55:38 68° ESE 17:59:57 10° S
Cosmos 2227 Rocket 2.3 17:52:18 10° NNW 17:57:54 56° ENE 18:03:26 10° SE
Meteor 2-8 Rocket 4.5 17:52:10 10° SSE 17:58:05 55° E 18:04:04 10° NNE
SL-4 R/B 1.9 17:56:18 10° W 17:59:49 60° N 18:01:41 27° ENE
Cosmos 1892 3.0 17:57:42 10° N 18:01:25 43° ENE 18:05:08 10° SSE
Cosmos 1726 Rocket 3.5 17:57:52 10° S 18:02:13 90° NE 18:06:38 10° N
Cosmos 1656 4.1 17:57:34 10° S 18:02:38 37° ESE 18:07:21 12° NE
Cosmos 1346 Rocket 3.4 18:00:50 10° N 18:04:32 35° ENE 18:06:07 25° ESE
Cosmos 2263 Rocket 3.7 18:02:45 10° N 18:06:39 18° NE 18:07:57 17° NE
NOSS 2-2 (C) 4.5 18:01:17 10° NW 18:06:41 89° SW 18:14:15 10° SE
BREEZE-M R/B 3.5 18:03:30 10° W 18:07:16 86° N 18:11:39 23° E
MOS 1 Rocket 3.9 18:04:25 10° NNE 18:08:38 34° E 18:13:02 10° SSE
Okean-O 2.5 18:04:41 10° SSE 18:09:07 84° ENE 18:13:35 10° NNW
CSL-04 Rocket 3.8 18:04:06 10° SE 18:09:28 52° ENE 18:14:49 10° N
CZ-2D R/B 3.3 18:05:55 10° S 18:09:44 80° WSW 18:13:34 10° NNW
FALCON 9 DEB 3.8 18:07:00 10° WNW 18:10:18 43° N 18:11:23 32° NE
Aureole 3 Rocket 3.0 18:08:10 10° S 18:11:59 72° E 18:17:17 10° NNE
Cosmos 1300 3.2 18:11:23 10° SSW 18:15:10 62° WNW 18:18:58 10° N
SJ-11-01 4.3 18:12:06 10° SSE 18:16:39 54° ENE 18:21:13 10° N
Cosmos 2228 4.0 18:12:55 10° SSW 18:17:01 48° WNW 18:21:11 10° N
Cosmos 1606 Rocket 4.4 18:12:50 10° SSW 18:17:05 52° WNW 18:21:25 10° N
GEOS 3 Rocket 3.6 18:12:44 15° SE 18:17:09 83° NE 18:22:35 10° NW
Cosmos 1697 Rocket 3.5 18:14:05 10° SSE 18:18:40 28° ESE 18:18:40 28° ESE
SL-08 R/B 4.4 18:12:37 10° N 18:18:51 80° E 18:24:59 10° SSE
Cosmos 1745 Rocket 4.0 18:12:39 10° N 18:18:53 60° ENE 18:25:08 10° SSE
SKYMED 2 3.8 18:15:21 10° N 18:19:42 71° WNW 18:24:01 10° SSW
CZ-4C R/B 3.9 18:15:43 10° NW 18:21:07 27° NNE 18:24:33 19° NE
Cosmos 44 3.1 18:16:46 10° SW 18:21:17 83° SE 18:24:23 22° NE
ERBS 4.0 18:20:55 10° WNW 18:23:37 22° N 18:24:22 20° NNE
Lacrosse 5 2.9 18:19:48 10° WNW 18:24:28 35° N 18:26:52 23° NE
Cosmos 1408 2.6 18:22:17 10° N 18:25:49 52° ENE 18:25:49 52° ENE
Cosmos 1825 3.4 18:24:35 10° N 18:26:45 27° NNE 18:26:45 27° NNE
H-2A R/B 2.1 18:23:41 10° SSE 18:29:03 71° ENE 18:34:31 10° N
CZ-4B R/B 4.1 18:27:05 10° NNW 18:29:32 20° WNW 18:31:56 10° WSW
Meteor 2-15 4.4 18:26:45 10° S 18:32:49 66° E 18:38:53 10° NNE
Cosmos 1992 Rocket 4.3 18:28:00 10° S 18:32:49 39° ESE 18:32:52 39° ESE
USA 307 2.9 18:30:28 10° WNW 18:34:45 66° NNE 18:35:30 54° ENE
Cosmos 1386 Rocket 4.4 18:30:23 10° N 18:36:50 76° E 18:43:11 10° SSE
Cosmos 2297 Rocket 2.5 18:32:31 10° NNW 18:38:10 67° WSW 18:43:45 10° SSE
FALCON 9 DEB 3.7 18:36:15 10° SW 18:38:42 43° SSW 18:38:42 43° SSW
USA 308 2.8 18:35:16 10° WNW 18:39:33 69° NNE 18:40:06 60° ENE
Ariane Rocket 3.6 18:41:47 37° NE 18:41:47 37° NE 18:46:05 10° N
Helios 1A Rocket 4.3 18:37:34 10° SSW 18:41:27 39° W 18:45:20 10° NNW
Cosmos 1340 3.8 18:38:34 10° NNW 18:42:11 44° W 18:45:46 10° SSW
Geosat 3.8 18:40:17 22° NE 18:43:38 75° ESE 18:48:39 10° SSW
BREEZE-M R/B 3.0 18:39:07 10° W 18:45:14 82° SSW 18:45:14 82° SSW
FALCON 9 DEB 4.0 18:42:41 10° SW 18:44:54 39° SW 18:44:54 39° SW
Cosmos 2058 Rocket 3.9 18:41:38 10° SSW 18:46:00 53° WNW 18:50:28 10° N
CSL-04 Debris 4.2 18:41:56 10° SSE 18:47:21 80° WSW 18:52:52 10° NNW
Cosmos 1709 Rocket 4.0 18:42:38 10° N 18:48:57 59° ENE 18:51:44 33° SE
FALCON 9 DEB 4.5 18:52:03 10° WSW 18:53:58 32° SW 18:53:58 32° SW
Cosmos 2058 3.3 18:56:12 10° NNW 19:00:16 60° W 19:01:47 35° SSW
MetOp-A 4.5 19:03:39 48° NE 19:03:39 48° NE 19:08:08 10° N
CZ-4 R/B 3.4 19:00:47 10° SSW 19:04:09 27° W 19:07:29 10° NW
Cosmos 2315 Rocket 4.1 19:05:45 51° ENE 19:05:45 51° ENE 19:10:57 10° NNE
Cosmos 2219 4.4 18:59:45 10° NW 19:05:07 41° WSW 19:10:27 10° S
Cosmos 883 Rocket 4.3 19:01:18 10° S 19:07:25 69° E 19:13:31 10° NNE
BREEZE-M TANK 3.4 19:02:39 10° W 19:07:54 40° SSW 19:07:55 40° SSW
NOSS 3-4 (A) 3.9 19:02:37 10° NW 19:09:17 55° NE 19:10:30 50° ENE
NOSS 3-4 (C) 3.9 19:02:43 10° NW 19:09:23 55° NE 19:10:36 50° ENE
S3M 4.0 19:03:39 10° SSW 19:09:45 76° W 19:15:57 10° N
Timation 1 Rocket 4.2 19:05:37 10° NNW 19:11:40 76° ENE 19:12:19 68° ESE
SeaSat 1 2.8 19:11:59 45° S 19:13:17 63° WSW 19:18:13 10° NW
Cosmos 2082 3.8 19:09:44 10° NNW 19:15:28 73° WSW 19:16:56 50° S
NOSS 3-3 (A) 3.9 19:14:13 10° SSW 19:19:18 61° SSE 19:19:18 61° SSE
NOSS 3-3 (C) 3.9 19:14:18 10° SSW 19:19:26 61° SSE 19:19:26 61° SSE
USA 215 3.1 19:20:27 64° E 19:21:32 80° NNE 19:28:05 10° WNW
Cosmos 1076 Rocket 4.3 19:19:15 10° NNW 19:23:14 48° W 19:23:14 48° W
USA 305 4.0 19:22:06 10° WNW 19:25:09 44° WNW 19:25:09 44° WNW
Cosmos 2369 4.5 19:22:44 10° SSW 19:26:16 39° SSW 19:26:16 39° SSW
ATLAS 2AS CENTAUR R/B 2.9 19:24:04 10° NW 19:31:37 59° NE 19:31:55 59° NE
ATLAS 5 CENTAUR R/B 4.0 19:28:52 10° NW 19:32:02 17° N 19:32:24 17° N
USA 306 4.3 19:28:24 10° WNW 19:31:10 38° WNW 19:31:10 38° WNW
Meteor 2-10 Rocket 4.4 19:28:40 10° SW 19:33:47 47° WNW 19:38:46 10° N
ARGOS 4.0 19:32:00 23° SSW 19:35:05 47° W 19:40:21 10° NNW
SL-4 R/B 4.2 19:35:55 10° WNW 19:37:16 22° WNW 19:37:16 22° WNW
Cosmos 2227 Rocket 4.0 19:36:54 10° NW 19:41:37 28° WSW 19:45:29 14° SSW
Cosmos 2263 Rocket 3.1 19:45:58 10° NNW 19:49:39 40° N 19:49:39 40° N
Cosmos 1697 Rocket 3.8 19:56:53 10° SW 20:00:30 38° WSW 20:00:30 38° WSW
Lacrosse 5 3.7 20:03:28 10° NW 20:06:03 27° NW 20:06:03 27° NW
H-2A R/B 4.5 20:05:05 10° SW 20:09:00 20° W 20:12:58 10° NW
CZ-4C R/B 3.4 20:04:21 10° NW 20:09:44 49° N 20:09:44 49° N
ATLAS 2AS CENTAUR R/B 4.4 21:15:30 10° NW 21:19:21 29° WNW 21:19:21 29° WNW
